This is the latest recevied weather packets stored in our database for station/object DM3DP. If no packets are shown the sender has not sent any weather packets the latest 10 day(s).
| Time | Temp. | Humidity | Pressure | Rain* | Wind** | Luminosity | Snow |
|---|---|---|---|---|---|---|---|
| 1777634491 | 21.11° C | 34% | 1023.4 hPa | 0 mm | - | 744 W/m² | - |
| 1777634161 | 21.11° C | 34% | 1023.5 hPa | 0 mm | - | 747 W/m² | - |
| 1777633832 | 21.11° C | 34% | 1023.7 hPa | 0 mm | - | 747 W/m² | - |
| 1777633501 | 20.56° C | 32% | 1023.8 hPa | 0 mm | - | 748 W/m² | - |
| 1777633171 | 20.56° C | 33% | 1023.8 hPa | 0 mm | - | 747 W/m² | - |
| 1777632841 | 20.56° C | 34% | 1024 hPa | 0 mm | - | 745 W/m² | - |
| 1777632512 | 20.56° C | 34% | 1024 hPa | 0 mm | - | 745 W/m² | - |
| 1777632181 | 20.56° C | 34% | 1024 hPa | 0 mm | - | 746 W/m² | - |
| 1777631851 | 20.56° C | 34% | 1024 hPa | 0 mm | - | 756 W/m² | - |
| 1777631522 | 20.56° C | 34% | 1024 hPa | 0 mm | - | 767 W/m² | - |
| 1777631192 | 20° C | 34% | 1024.1 hPa | 0 mm | - | 775 W/m² | - |
| 1777630861 | 20° C | 33% | 1024.2 hPa | 0 mm | - | 815 W/m² | - |
| 1777630532 | 20° C | 34% | 1024.4 hPa | 0 mm | - | 836 W/m² | - |
| 1777630201 | 20° C | 33% | 1024.5 hPa | 0 mm | - | 815 W/m² | - |
| 1777629872 | 19.44° C | 32% | 1024.5 hPa | 0 mm | - | 807 W/m² | - |
| 1777629542 | 19.44° C | 32% | 1024.5 hPa | 0 mm | - | 810 W/m² | - |
| 1777629212 | 19.44° C | 32% | 1024.5 hPa | 0 mm | - | 816 W/m² | - |
| 1777628882 | 19.44° C | 33% | 1024.5 hPa | 0 mm | - | 821 W/m² | - |
| 1777628552 | 19.44° C | 32% | 1024.6 hPa | 0 mm | - | 828 W/m² | - |
| 1777628221 | 19.44° C | 32% | 1024.6 hPa | 0 mm | - | 867 W/m² | - |
| 1777627892 | 18.89° C | 32% | 1024.7 hPa | 0 mm | - | 885 W/m² | - |
| 1777627561 | 18.89° C | 34% | 1024.7 hPa | 0 mm | - | 885 W/m² | - |
| 1777627232 | 18.33° C | 33% | 1024.7 hPa | 0 mm | - | 878 W/m² | - |
| 1777626902 | 18.33° C | 30% | 1024.8 hPa | 0 mm | - | 878 W/m² | - |
| 1777626572 | 18.33° C | 33% | 1024.8 hPa | 0 mm | - | 879 W/m² | - |
* Rain latest hour (hover to see other rain measurements)
** Current wind speed in m/s (hover to see current wind gust speed)